Retour au catalogue

FENGYUN 1C DEB

LostSSO
NORAD 36156·DEBRIS·🇨🇳 China

Lancé May 10, 1999 depuis Taiyuan Satellite Launch Center

Loading…

Prochains Passages (prochaines 24 heures)

TLE

PériméSource: Space-Track

Époque: Sep 22, 2022, 11:19 UTC

1 36156U 99025DSD 22265.47173818  .00003086  00000-0  11556-2 0  9999
2 36156  98.7257 353.3993 0046446 297.5882 120.7293 14.31876868721423

Suivez FENGYUN 1C DEB en temps réel avec AllMySat

Download on the App Store